Latest Weather Observations for Mount Nowa Nowa

IDV60801

Issued at 7:02 pm EST Saturday 29 August 2015 (issued every 30 minutes, with the page automatically refreshed every 10 minutes)

About weather observations | Map of weather stations | Latest weather observations for VIC | Other Formats
Station Details ID: 084144 Name: MOUNT NOWA NOWA Lat: -37.69 Lon: 148.09 Height: 350.0 m
Data from the previous 72 hours. | See also: Recent months at Mount Nowa Nowa
Date/Time
EST
Temp
°C
App
Temp
°C
Dew
Point
Rel
Hum
%
Delta-T
°C
Wind Press
QNH
hPa
Press
MSL
hPa
Rain
since 9 am
mm
Dir
 
Spd
km/h
Gust
km/h
Spd
kts
Gust
kts
29/07:00pm 6.9 4.0 6.6 98 0.1 W 11 20 6 11 - - 2.8
29/06:30pm 6.7 3.4 6.4 98 0.1 W 13 26 7 14 - - 2.8
29/06:00pm 6.5 3.9 6.2 98 0.1 W 9 24 5 13 - - 2.8
29/05:30pm 7.1 4.7 6.8 98 0.1 W 9 22 5 12 - - 2.6
29/05:00pm 7.3 4.9 7.0 98 0.1 W 9 17 5 9 - - 2.6
29/04:30pm 7.3 4.5 7.0 98 0.1 WSW 11 22 6 12 - - 2.0
29/04:00pm 7.3 4.9 6.9 97 0.2 WSW 9 17 5 9 - - 1.4
29/03:30pm 7.5 4.2 6.4 93 0.5 WSW 13 35 7 19 - - 0.8
29/03:00pm 7.6 4.3 6.4 92 0.6 W 13 28 7 15 - - 0.6
29/02:30pm 7.6 4.2 5.9 89 0.8 W 13 26 7 14 - - 0.4
29/02:00pm 6.9 3.5 6.0 94 0.4 W 13 24 7 13 - - 0.4
29/01:30pm 6.7 3.3 5.8 94 0.4 W 13 28 7 15 - - 0.2
29/01:00pm 6.5 3.5 5.8 95 0.3 W 11 19 6 10 - - 0.0
29/12:30pm 6.3 2.3 4.9 91 0.6 W 15 30 8 16 - - 0.0
29/12:00pm 6.3 1.7 3.8 84 1.1 W 17 35 9 19 - - 0.0
29/11:30am 6.9 2.3 3.5 79 1.5 W 17 33 9 18 - - 0.0
29/11:00am 6.7 1.6 3.0 77 1.6 W 19 35 10 19 - - 0.0
29/10:30am 6.6 1.5 2.9 77 1.6 W 19 35 10 19 - - 0.0
29/10:00am 6.1 1.0 2.9 80 1.4 W 19 32 10 17 - - 0.0
29/09:30am 5.5 0.1 2.2 79 1.4 W 20 43 11 23 - - 0.0
29/09:00am 4.7 -0.5 2.2 84 1.0 W 19 30 10 16 - - 14.6
29/08:30am 3.9 -1.4 1.9 87 0.8 W 19 32 10 17 - - 14.6
29/08:00am 3.3 -1.6 2.1 92 0.5 W 17 28 9 15 - - 14.6
29/07:30am 3.0 -1.4 2.6 97 0.2 W 15 26 8 14 - - 14.6
29/07:00am 2.8 -1.6 2.7 99 0.0 W 15 20 8 11 - - 14.6
29/06:30am 2.9 -1.5 2.8 99 0.0 W 15 22 8 12 - - 14.6
29/06:00am 3.0 -1.0 2.9 99 0.0 W 13 19 7 10 - - 14.6
29/05:30am 3.1 -0.9 3.0 99 0.0 W 13 20 7 11 - - 14.6
29/05:00am 3.1 -0.9 3.0 99 0.0 W 13 19 7 10 - - 14.6
29/04:30am 3.4 -0.5 3.3 99 0.0 W 13 20 7 11 - - 14.6
29/04:00am 3.6 0.1 3.5 99 0.0 W 11 22 6 12 - - 14.6
29/03:30am 3.8 0.3 3.7 99 0.0 W 11 24 6 13 - - 14.4
29/03:00am 3.6 0.1 3.5 99 0.0 W 11 24 6 13 - - 14.4
29/02:30am 3.8 0.7 3.7 99 0.0 W 9 17 5 9 - - 14.4
29/02:00am 4.1 1.1 4.0 99 0.0 W 9 15 5 8 - - 14.4
29/01:30am 4.5 1.9 4.4 99 0.0 W 7 11 4 6 - - 14.4
29/01:00am 5.0 2.5 4.9 99 0.0 W 7 15 4 8 - - 14.4
29/12:30am 5.0 2.5 4.9 99 0.0 WSW 7 17 4 9 - - 14.4
29/12:00am 5.3 3.1 5.2 99 0.0 W 6 11 3 6 - - 14.2
 
Date/Time
EST
Temp
°C
App
Temp
°C
Dew
Point
Rel
Hum
%
Delta-T
°C
Wind Press
QNH
hPa
Press
MSL
hPa
Rain
since 9 am
mm
Dir
 
Spd
km/h
Gust
km/h
Spd
kts
Gust
kts
28/11:30pm 5.5 3.3 5.4 99 0.0 W 6 9 3 5 - - 14.2
28/11:00pm 5.8 3.7 5.7 99 0.0 W 6 9 3 5 - - 14.2
28/10:30pm 6.0 4.3 5.9 99 0.0 W 4 7 2 4 - - 13.6
28/10:00pm 6.3 4.7 6.2 99 0.0 WSW 4 9 2 5 - - 13.4
28/09:30pm 6.3 5.0 6.2 99 0.0 W 2 6 1 3 - - 13.0
28/09:00pm 6.2 4.9 6.1 99 0.0 W 2 6 1 3 - - 11.8
28/08:30pm 6.2 4.9 6.1 99 0.0 W 2 4 1 2 - - 11.6
28/08:00pm 6.6 5.4 6.5 99 0.0 W 2 6 1 3 - - 11.4
28/07:30pm 6.7 5.5 6.6 99 0.0 W 2 6 1 3 - - 11.4
28/07:00pm 6.7 5.2 6.6 99 0.0 WSW 4 6 2 3 - - 10.6
28/06:30pm 6.7 5.2 6.6 99 0.0 W 4 7 2 4 - - 10.0
28/06:00pm 6.8 5.3 6.7 99 0.0 W 4 6 2 3 - - 10.0
28/05:30pm 6.7 5.2 6.6 99 0.0 WSW 4 7 2 4 - - 10.0
28/05:00pm 6.8 4.7 6.7 99 0.0 SW 7 13 4 7 - - 9.6
28/04:30pm 7.6 5.9 7.5 99 0.0 SW 6 19 3 10 - - 8.4
28/04:00pm 7.6 5.9 7.5 99 0.0 SW 6 13 3 7 - - 7.6
28/03:30pm 7.4 5.6 7.3 99 0.0 SSW 6 11 3 6 - - 7.2
28/03:00pm 8.0 6.4 7.9 99 0.0 WSW 6 15 3 8 - - 3.8
28/02:30pm 8.1 6.5 8.0 99 0.0 W 6 11 3 6 - - 3.0
28/02:00pm 8.1 6.3 8.0 99 0.0 W 7 13 4 7 - - 2.6
28/01:30pm 8.0 6.2 7.9 99 0.0 W 7 15 4 8 - - 2.4
28/01:00pm 7.8 5.6 7.7 99 0.0 W 9 20 5 11 - - 2.4
28/12:30pm 7.8 5.6 7.7 99 0.0 WSW 9 17 5 9 - - 2.4
28/12:00pm 7.5 5.6 7.4 99 0.0 WSW 7 17 4 9 - - 1.8
28/11:30am 7.4 5.1 7.3 99 0.0 W 9 20 5 11 - - 1.2
28/11:00am 7.1 4.3 7.0 99 0.0 W 11 26 6 14 - - 0.8
28/10:30am 7.1 4.3 7.0 99 0.0 W 11 30 6 16 - - 0.6
28/10:00am 6.7 3.4 6.6 99 0.0 W 13 24 7 13 - - 0.4
28/09:30am 6.7 3.8 6.6 99 0.0 W 11 24 6 13 - - 0.2
28/09:00am 6.5 3.2 6.4 99 0.0 W 13 32 7 17 - - 39.4
28/08:30am 6.5 2.8 6.4 99 0.0 W 15 26 8 14 - - 39.2
28/08:00am 6.8 3.6 6.7 99 0.0 WSW 13 26 7 14 - - 38.6
28/07:30am 7.0 3.4 6.9 99 0.0 WSW 15 28 8 15 - - 38.4
28/07:00am 7.1 3.2 7.0 99 0.0 WSW 17 30 9 16 - - 38.4
28/06:30am 7.5 4.0 7.4 99 0.0 WSW 15 28 8 15 - - 38.2
28/06:00am 7.7 4.7 7.6 99 0.0 WSW 13 28 7 15 - - 37.8
28/05:30am 7.8 4.8 7.7 99 0.0 WSW 13 26 7 14 - - 36.6
28/05:00am 7.9 5.3 7.8 99 0.0 WSW 11 24 6 13 - - 34.8
28/04:30am 8.1 5.6 8.0 99 0.0 WSW 11 22 6 12 - - 32.2
28/04:00am 8.3 5.8 8.2 99 0.0 WSW 11 32 6 17 - - 30.0
28/03:30am 8.5 5.7 8.4 99 0.0 WSW 13 32 7 17 - - 29.2
28/03:00am 8.6 5.4 8.5 99 0.0 SW 15 33 8 18 - - 27.6
28/02:30am 8.9 6.5 8.8 99 0.0 WSW 11 22 6 12 - - 26.4
28/02:00am 9.0 6.7 8.9 99 0.0 WSW 11 30 6 16 - - 25.2
28/01:30am 8.8 6.8 8.7 99 0.0 SW 9 20 5 11 - - 25.2
28/01:00am 8.2 6.4 8.1 99 0.0 W 7 17 4 9 - - 25.2
28/12:30am 8.0 5.8 7.9 99 0.0 W 9 15 5 8 - - 24.2
28/12:00am 7.9 5.7 7.8 99 0.0 W 9 19 5 10 - - 22.6
 
Date/Time
EST
Temp
°C
App
Temp
°C
Dew
Point
Rel
Hum
%
Delta-T
°C
Wind Press
QNH
hPa
Press
MSL
hPa
Rain
since 9 am
mm
Dir
 
Spd
km/h
Gust
km/h
Spd
kts
Gust
kts
27/11:30pm 7.8 5.6 7.7 99 0.0 W 9 15 5 8 - - 21.0
27/11:00pm 7.7 5.4 7.6 99 0.0 W 9 17 5 9 - - 20.8
27/10:30pm 7.7 5.4 7.6 99 0.0 W 9 15 5 8 - - 20.0
27/10:00pm 7.7 5.4 7.6 99 0.0 W 9 17 5 9 - - 19.2
27/09:30pm 7.7 5.4 7.6 99 0.0 W 9 19 5 10 - - 18.4
27/09:00pm 7.7 5.8 7.6 99 0.0 W 7 13 4 7 - - 17.2
27/08:30pm 7.7 5.4 7.6 99 0.0 W 9 13 5 7 - - 16.8
27/08:00pm 7.7 5.8 7.6 99 0.0 W 7 15 4 8 - - 16.8
27/07:30pm 7.7 5.4 7.6 99 0.0 W 9 19 5 10 - - 16.8
27/07:00pm 7.7 5.4 7.6 99 0.0 W 9 19 5 10 - - 16.8
27/06:30pm 7.7 5.8 7.6 99 0.0 W 7 15 4 8 - - 16.8
27/06:00pm 7.8 5.9 7.5 98 0.1 W 7 13 4 7 - - 16.8
27/05:30pm 8.0 6.1 7.7 98 0.1 WSW 7 13 4 7 - - 16.8
27/05:00pm 8.2 6.6 7.9 98 0.1 WSW 6 13 3 7 - - 16.8
27/04:30pm 8.4 6.7 8.3 99 0.0 WSW 7 15 4 8 - - 16.8
27/04:00pm 8.6 6.6 8.5 99 0.0 WSW 9 17 5 9 - - 16.8
27/03:30pm 8.6 6.6 8.5 99 0.0 WSW 9 20 5 11 - - 16.8
27/03:00pm 8.6 6.2 8.5 99 0.0 WSW 11 20 6 11 - - 16.8
27/02:30pm 9.0 7.1 8.9 99 0.0 W 9 15 5 8 - - 16.8
27/02:00pm 9.1 6.8 9.0 99 0.0 W 11 24 6 13 - - 16.8
27/01:30pm 9.1 7.2 9.0 99 0.0 WSW 9 24 5 13 - - 16.8
27/01:00pm 8.9 6.9 8.8 99 0.0 W 9 17 5 9 - - 16.8
27/12:30pm 8.6 6.9 8.5 99 0.0 WSW 7 13 4 7 - - 16.6
27/12:00pm 8.6 7.5 8.5 99 0.0 WNW 4 9 2 5 - - 16.2
27/11:30am 8.2 6.1 8.1 99 0.0 WNW 9 15 5 8 - - 15.8
27/11:00am 8.1 6.3 8.0 99 0.0 WNW 7 11 4 6 - - 12.2
27/10:30am 8.0 5.4 7.9 99 0.0 NW 11 17 6 9 - - 8.6
27/10:00am 7.9 6.3 7.8 99 0.0 NW 6 9 3 5 - - 2.4
27/09:30am 8.2 7.3 7.9 98 0.1 WNW 2 4 1 2 - - 0.2
27/09:00am 8.7 8.4 8.6 99 0.0 CALM 0 0 0 0 - - 4.4
27/08:30am 8.0 6.7 7.7 98 0.1 NNW 4 6 2 3 - - 4.2
27/08:00am 8.0 7.5 7.7 98 0.1 CALM 0 0 0 0 - - 3.2
27/07:30am 8.0 7.1 7.7 98 0.1 NNW 2 2 1 1 - - 1.8
27/07:00am 8.1 7.6 7.7 97 0.2 CALM 0 0 0 0 - - 1.8
27/06:30am 8.6 7.4 8.2 97 0.2 E 4 4 2 2 - - 1.8
27/06:00am 8.6 7.5 8.3 98 0.1 E 4 6 2 3 - - 1.8
27/05:30am 8.6 7.5 8.3 98 0.1 E 4 6 2 3 - - 1.8
27/05:00am 8.6 7.5 8.3 98 0.1 E 4 6 2 3 - - 1.8
27/04:30am 8.4 7.2 8.0 97 0.2 E 4 6 2 3 - - 1.8
27/04:00am 8.6 7.4 8.2 97 0.2 E 4 6 2 3 - - 1.8
27/03:30am 8.8 7.3 8.4 97 0.2 E 6 7 3 4 - - 1.8
27/03:00am 8.9 7.4 8.6 98 0.1 ENE 6 7 3 4 - - 1.8
27/02:30am 8.7 7.2 8.3 97 0.2 E 6 11 3 6 - - 1.8
27/02:00am 9.0 7.4 8.7 98 0.1 ENE 7 9 4 5 - - 1.8
27/01:30am 8.7 7.6 8.4 98 0.1 NNE 4 7 2 4 - - 1.6
27/01:00am 8.9 7.4 8.6 98 0.1 ENE 6 9 3 5 - - 1.6
27/12:30am 8.7 7.0 8.4 98 0.1 E 7 9 4 5 - - 1.6
27/12:00am 9.0 7.4 8.7 98 0.1 E 7 9 4 5 - - 1.6
 
Date/Time
EST
Temp
°C
App
Temp
°C
Dew
Point
Rel
Hum
%
Delta-T
°C
Wind Press
QNH
hPa
Press
MSL
hPa
Rain
since 9 am
mm
Dir
 
Spd
km/h
Gust
km/h
Spd
kts
Gust
kts
26/11:30pm 9.1 7.5 8.8 98 0.1 E 7 15 4 8 - - 1.6
26/11:00pm 9.1 7.5 8.8 98 0.1 E 7 13 4 7 - - 1.6
26/10:30pm 9.1 7.5 8.6 97 0.2 E 7 9 4 5 - - 1.4
26/10:00pm 9.2 7.6 8.7 97 0.2 E 7 11 4 6 - - 1.4
26/09:30pm 9.1 7.6 8.6 97 0.2 E 6 9 3 5 - - 0.8
26/09:00pm 9.1 7.6 8.6 97 0.2 E 6 9 3 5 - - 0.4
26/08:30pm 9.1 7.4 8.5 96 0.3 E 7 13 4 7 - - 0.2
26/08:00pm 9.1 7.4 8.3 95 0.4 E 7 13 4 7 - - 0.0
26/07:30pm 9.1 7.4 8.3 95 0.4 E 7 13 4 7 - - 0.0

Other Formats:

Comma delimited format used in spreadsheet applications
http://www.bom.gov.au/fwo/IDV60801/IDV60801.94930.axf

JavaScript Object Notation format (JSON) in row-major order
http://www.bom.gov.au/fwo/IDV60801/IDV60801.94930.json